Torna al catalogo

ATLAS 5 CENTAUR DEB

LostHEO
NORAD 47250·DEBRIS·🇺🇸 United States

Lanciato Oct 17, 2018 da Cape Canaveral Space Force Station

Loading…

Prossimi Passaggi (prossime 24 ore)

TLE

ObsoletoSource: Space-Track

Epoca: Feb 9, 2023, 06:19 UTC

1 47250U 18079EJ  23040.26347500 -.00000041  00000-0  00000+0 0  9994
2 47250  11.5059 134.7412 4764029 137.3918 271.2974  1.93739688 15560

Traccia ATLAS 5 CENTAUR DEB in tempo reale con AllMySat

Download on the App Store